Tracking 19720 objects as of 27-Jun-2019
HD Live streaming from Space Station
objects crossing your sky now

PALAPA B4

Track PALAPA B4 now!
PALAPA B4 is classified as:


NORAD ID: 21964
Int'l Code: 1992-027A
Perigee: 35,860.6 km
Apogee: 35,911.0 km
Inclination: 10.7 °
Period: 1,440.8 minutes
Semi major axis: 42256 km
RCS: 12.5892 m2 (large)
Launch date: May 14, 1992
Source: Indonesia (INDO)
Launch site: AIR FORCE EASTERN TEST RANGE (AFETR)

Palapa B-4 was an Indonesian communications spacecraft launched by a Delta rocket.
aabbcc
Your satellite tracking list
Your tracking list is empty




NASA's NSSDC Master Catalog

Two Line Element Set (TLE):
1 21964U 92027A   19177.82245941  .00000086  00000-0  00000+0 0  9995
2 21964  10.7098  34.5304 0005961 332.6467  42.2744  0.99944360 99050
Source of the keplerian elements: AFSPC